Time,TemperatureF,DewpointF,PressureIn,WindDirection,WindDirectionDegrees,WindSpeedMPH,WindSpeedGustMPH,Humidity,HourlyPrecipIn,Conditions,Clouds,dailyrainin,SoftwareType,DateUTC
2013-02-17 00:02:00,9.0,0.0,30.20,NW,319,5.0,7.0,65,0.00,,,0.00,,2013-02-17 06:02:00,
2013-02-17 00:11:00,9.0,0.0,30.20,NW,319,5.0,7.0,65,0.00,,,0.00,,2013-02-17 06:11:00,
2013-02-17 00:21:00,9.0,0.0,30.20,NW,319,3.0,7.0,66,0.00,,,0.00,,2013-02-17 06:21:00,
2013-02-17 00:31:00,9.0,0.0,30.20,NNW,336,4.0,5.0,65,0.00,,,0.00,,2013-02-17 06:31:00,
2013-02-17 00:41:00,9.0,0.0,30.20,NNW,336,4.0,5.0,65,0.00,,,0.00,,2013-02-17 06:41:00,
2013-02-17 00:52:00,9.0,0.0,30.20,NNW,336,4.0,7.0,65,0.00,,,0.00,,2013-02-17 06:52:00,
2013-02-17 01:01:00,9.0,0.0,30.20,NNW,327,4.0,6.0,66,0.00,,,0.00,,2013-02-17 07:01:00,
2013-02-17 01:11:00,9.0,0.0,30.20,NW,312,4.0,5.0,66,0.00,,,0.00,,2013-02-17 07:11:00,
2013-02-17 01:21:00,9.0,0.0,30.20,NW,312,4.0,5.0,66,0.00,,,0.00,,2013-02-17 07:21:00,
2013-02-17 01:31:00,8.0,-1.0,30.20,NW,309,4.0,5.0,67,0.00,,,0.00,,2013-02-17 07:31:00,
2013-02-17 01:41:00,8.0,-1.0,30.20,NW,309,4.0,5.0,67,0.00,,,0.00,,2013-02-17 07:41:00,
2013-02-17 01:52:00,8.0,-1.0,30.20,NW,304,4.0,5.0,67,0.00,,,0.00,,2013-02-17 07:52:00,
2013-02-17 02:01:00,8.0,0.0,30.21,NW,304,5.0,6.0,68,0.00,,,0.00,,2013-02-17 08:01:00,
2013-02-17 02:11:00,8.0,0.0,30.21,NW,304,5.0,6.0,68,0.00,,,0.00,,2013-02-17 08:11:00,
2013-02-17 02:21:00,8.0,0.0,30.21,NW,308,5.0,6.0,68,0.00,,,0.00,,2013-02-17 08:21:00,
2013-02-17 02:31:00,8.0,0.0,30.21,WNW,302,5.0,6.0,69,0.00,,,0.00,,2013-02-17 08:31:00,
2013-02-17 02:42:00,8.0,0.0,30.21,WNW,302,5.0,6.0,69,0.00,,,0.00,,2013-02-17 08:42:00,
2013-02-17 02:52:00,7.0,-1.0,30.21,NW,306,4.0,6.0,69,0.00,,,0.00,,2013-02-17 08:52:00,
2013-02-17 03:01:00,7.0,-1.0,30.20,NW,313,4.0,5.0,70,0.00,,,0.00,,2013-02-17 09:01:00,
2013-02-17 03:11:00,7.0,-1.0,30.20,NW,313,4.0,5.0,70,0.00,,,0.00,,2013-02-17 09:11:00,
2013-02-17 03:21:00,7.0,-1.0,30.20,NW,306,4.0,5.0,70,0.00,,,0.00,,2013-02-17 09:21:00,
2013-02-17 03:31:00,7.0,0.0,30.20,NW,306,4.0,6.0,71,0.00,,,0.00,,2013-02-17 09:31:00,
2013-02-17 03:41:00,7.0,0.0,30.20,NW,306,4.0,6.0,71,0.00,,,0.00,,2013-02-17 09:41:00,
2013-02-17 03:52:00,7.0,0.0,30.20,NW,306,4.0,5.0,72,0.00,,,0.00,,2013-02-17 09:52:00,
2013-02-17 04:01:00,7.0,0.0,30.20,WNW,302,4.0,5.0,72,0.00,,,0.00,,2013-02-17 10:01:00,
2013-02-17 04:11:00,7.0,0.0,30.20,WNW,302,4.0,5.0,72,0.00,,,0.00,,2013-02-17 10:11:00,
2013-02-17 04:21:00,7.0,0.0,30.20,WNW,300,4.0,5.0,72,0.00,,,0.00,,2013-02-17 10:21:00,
2013-02-17 04:31:00,7.0,0.0,30.20,NW,312,4.0,5.0,71,0.00,,,0.00,,2013-02-17 10:31:00,
2013-02-17 04:41:00,7.0,0.0,30.20,NW,312,4.0,5.0,71,0.00,,,0.00,,2013-02-17 10:41:00,
2013-02-17 04:52:00,7.0,0.0,30.20,NW,311,4.0,5.0,71,0.00,,,0.00,,2013-02-17 10:52:00,
2013-02-17 05:01:00,7.0,0.0,30.20,WNW,297,4.0,5.0,71,0.00,,,0.00,,2013-02-17 11:01:00,
2013-02-17 05:11:00,7.0,0.0,30.20,WNW,297,4.0,5.0,71,0.00,,,0.00,,2013-02-17 11:11:00,
2013-02-17 05:21:00,7.0,0.0,30.20,WNW,302,4.0,5.0,71,0.00,,,0.00,,2013-02-17 11:21:00,
2013-02-17 05:32:00,7.0,-1.0,30.21,WNW,302,4.0,5.0,70,0.00,,,0.00,,2013-02-17 11:32:00,
2013-02-17 05:42:00,7.0,-1.0,30.21,WNW,302,4.0,5.0,70,0.00,,,0.00,,2013-02-17 11:42:00,
2013-02-17 05:52:00,7.0,0.0,30.22,WNW,296,4.0,5.0,71,0.00,,,0.00,,2013-02-17 11:52:00,
2013-02-17 06:03:00,6.0,-1.0,30.22,WNW,295,3.0,5.0,72,0.00,,,0.00,,2013-02-17 12:03:00,
2013-02-17 06:11:00,6.0,-1.0,30.22,WNW,295,3.0,5.0,72,0.00,,,0.00,,2013-02-17 12:11:00,
2013-02-17 06:22:00,6.0,-1.0,30.22,WNW,288,4.0,5.0,72,0.00,,,0.00,,2013-02-17 12:22:00,
2013-02-17 06:32:00,6.0,-1.0,30.22,WNW,291,4.0,5.0,73,0.00,,,0.00,,2013-02-17 12:32:00,
2013-02-17 06:42:00,6.0,-1.0,30.22,WNW,291,4.0,5.0,73,0.00,,,0.00,,2013-02-17 12:42:00,
2013-02-17 06:52:00,6.0,-1.0,30.22,WNW,297,4.0,6.0,73,0.00,,,0.00,,2013-02-17 12:52:00,
2013-02-17 07:02:00,6.0,-1.0,30.22,WNW,286,3.0,5.0,73,0.00,,,0.00,,2013-02-17 13:02:00,
2013-02-17 07:12:00,6.0,-1.0,30.22,WNW,286,3.0,5.0,73,0.00,,,0.00,,2013-02-17 13:12:00,
2013-02-17 07:21:00,6.0,-1.0,30.22,WNW,292,4.0,5.0,73,0.00,,,0.00,,2013-02-17 13:21:00,
2013-02-17 07:32:00,6.0,0.0,30.23,WNW,293,4.0,6.0,74,0.00,,,0.00,,2013-02-17 13:32:00,
2013-02-17 07:41:00,6.0,0.0,30.23,WNW,293,4.0,6.0,74,0.00,,,0.00,,2013-02-17 13:41:00,
2013-02-17 07:52:00,6.0,0.0,30.23,WNW,298,3.0,5.0,74,0.00,,,0.00,,2013-02-17 13:52:00,
2013-02-17 08:01:00,7.0,0.0,30.22,NW,304,3.0,4.0,73,0.00,,,0.00,,2013-02-17 14:01:00,
2013-02-17 08:11:00,7.0,0.0,30.22,NW,304,3.0,4.0,73,0.00,,,0.00,,2013-02-17 14:11:00,
2013-02-17 08:21:00,8.0,1.0,30.22,WNW,292,2.0,4.0,74,0.00,,,0.00,,2013-02-17 14:21:00,
2013-02-17 08:32:00,9.0,2.0,30.23,WNW,297,1.0,3.0,73,0.00,,,0.00,,2013-02-17 14:32:00,
2013-02-17 08:42:00,9.0,2.0,30.23,WNW,297,1.0,3.0,73,0.00,,,0.00,,2013-02-17 14:42:00,
2013-02-17 08:53:00,10.0,3.0,30.22,WNW,296,1.0,2.0,71,0.00,,,0.00,,2013-02-17 14:53:00,
2013-02-17 09:01:00,11.0,3.0,30.23,WNW,296,1.0,2.0,70,0.00,,,0.00,,2013-02-17 15:01:00,
2013-02-17 09:11:00,11.0,3.0,30.23,WNW,296,1.0,2.0,70,0.00,,,0.00,,2013-02-17 15:11:00,
2013-02-17 09:21:00,12.0,4.0,30.23,WNW,296,1.0,2.0,69,0.00,,,0.00,,2013-02-17 15:21:00,
2013-02-17 09:31:00,14.0,4.0,30.22,WNW,296,0.0,2.0,64,0.00,,,0.00,,2013-02-17 15:31:00,
2013-02-17 09:41:00,14.0,4.0,30.22,WNW,296,0.0,2.0,64,0.00,,,0.00,,2013-02-17 15:41:00,
2013-02-17 09:52:00,15.0,4.0,30.23,WNW,296,1.0,3.0,60,0.00,,,0.00,,2013-02-17 15:52:00,
2013-02-17 10:01:00,15.0,2.0,30.23,West,260,0.0,5.0,55,0.00,,,0.00,,2013-02-17 16:01:00,
2013-02-17 10:11:00,15.0,2.0,30.23,West,260,0.0,5.0,55,0.00,,,0.00,,2013-02-17 16:11:00,
2013-02-17 10:21:00,16.0,2.0,30.23,West,266,3.0,5.0,54,0.00,,,0.00,,2013-02-17 16:21:00,
2013-02-17 10:32:00,16.0,1.0,30.23,WNW,298,2.0,4.0,51,0.00,,,0.00,,2013-02-17 16:32:00,
2013-02-17 10:41:00,16.0,1.0,30.23,WNW,298,2.0,4.0,51,0.00,,,0.00,,2013-02-17 16:41:00,
2013-02-17 10:52:00,17.0,2.0,30.22,WNW,287,2.0,5.0,50,0.00,,,0.00,,2013-02-17 16:52:00,
2013-02-17 11:02:00,17.0,2.0,30.22,WNW,290,1.0,5.0,50,0.00,,,0.00,,2013-02-17 17:02:00,
2013-02-17 11:11:00,17.0,2.0,30.22,WNW,290,1.0,5.0,50,0.00,,,0.00,,2013-02-17 17:11:00,
2013-02-17 11:21:00,18.0,3.0,30.21,WSW,248,2.0,5.0,50,0.00,,,0.00,,2013-02-17 17:21:00,
2013-02-17 11:32:00,19.0,3.0,30.21,West,267,1.0,5.0,49,0.00,,,0.00,,2013-02-17 17:32:00,
2013-02-17 11:41:00,19.0,3.0,30.21,West,267,1.0,5.0,49,0.00,,,0.00,,2013-02-17 17:41:00,
2013-02-17 11:52:00,19.0,2.0,30.21,West,266,2.0,7.0,46,0.00,,,0.00,,2013-02-17 17:52:00,
2013-02-17 12:01:00,19.0,2.0,30.21,West,261,2.0,7.0,46,0.00,,,0.00,,2013-02-17 18:01:00,
2013-02-17 12:11:00,19.0,2.0,30.21,West,261,2.0,7.0,46,0.00,,,0.00,,2013-02-17 18:11:00,
2013-02-17 12:22:00,20.0,3.0,30.20,SW,223,1.0,6.0,46,0.00,,,0.00,,2013-02-17 18:22:00,
2013-02-17 12:33:00,20.0,1.0,30.20,WSW,258,2.0,8.0,42,0.00,,,0.00,,2013-02-17 18:33:00,
2013-02-17 12:42:00,20.0,1.0,30.20,WSW,258,2.0,8.0,42,0.00,,,0.00,,2013-02-17 18:42:00,
2013-02-17 12:52:00,20.0,1.0,30.19,West,262,3.0,7.0,42,0.00,,,0.00,,2013-02-17 18:52:00,
2013-02-17 13:01:00,21.0,3.0,30.19,WSW,238,3.0,8.0,44,0.00,,,0.00,,2013-02-17 19:01:00,
2013-02-17 13:11:00,21.0,3.0,30.19,WSW,238,3.0,8.0,44,0.00,,,0.00,,2013-02-17 19:11:00,
2013-02-17 13:21:00,22.0,4.0,30.19,WSW,238,2.0,7.0,46,0.00,,,0.00,,2013-02-17 19:21:00,
2013-02-17 13:32:00,22.0,4.0,30.18,WSW,242,3.0,7.0,45,0.00,,,0.00,,2013-02-17 19:32:00,
2013-02-17 13:42:00,22.0,4.0,30.18,WSW,242,3.0,7.0,45,0.00,,,0.00,,2013-02-17 19:42:00,
2013-02-17 13:52:00,22.0,3.0,30.17,SW,230,4.0,8.0,43,0.00,,,0.00,,2013-02-17 19:52:00,
2013-02-17 14:01:00,23.0,3.0,30.17,SSW,213,5.0,10.0,42,0.00,,,0.00,,2013-02-17 20:01:00,
2013-02-17 14:11:00,23.0,3.0,30.17,SSW,213,5.0,10.0,42,0.00,,,0.00,,2013-02-17 20:11:00,
2013-02-17 14:21:00,23.0,5.0,30.16,SSW,205,4.0,10.0,45,0.00,,,0.00,,2013-02-17 20:21:00,
2013-02-17 14:32:00,23.0,4.0,30.16,SSW,197,2.0,10.0,44,0.00,,,0.00,,2013-02-17 20:32:00,
2013-02-17 14:42:00,23.0,4.0,30.16,SSW,197,2.0,10.0,44,0.00,,,0.00,,2013-02-17 20:42:00,
2013-02-17 14:52:00,24.0,5.0,30.15,WSW,244,4.0,10.0,44,0.00,,,0.00,,2013-02-17 20:52:00,
2013-02-17 15:01:00,24.0,5.0,30.15,South,177,4.0,9.0,44,0.00,,,0.00,,2013-02-17 21:01:00,
2013-02-17 15:11:00,24.0,5.0,30.15,South,177,4.0,9.0,44,0.00,,,0.00,,2013-02-17 21:11:00,
2013-02-17 15:21:00,24.0,7.0,30.14,SSW,196,3.0,9.0,47,0.00,,,0.00,,2013-02-17 21:21:00,
2013-02-17 15:31:00,24.0,6.0,30.14,SW,219,2.0,9.0,45,0.00,,,0.00,,2013-02-17 21:31:00,
2013-02-17 15:41:00,24.0,6.0,30.14,SW,219,2.0,9.0,45,0.00,,,0.00,,2013-02-17 21:41:00,
2013-02-17 15:53:00,24.0,6.0,30.13,SW,216,4.0,8.0,45,0.00,,,0.00,,2013-02-17 21:53:00,
2013-02-17 16:01:00,24.0,6.0,30.13,SSW,198,2.0,8.0,45,0.00,,,0.00,,2013-02-17 22:01:00,
2013-02-17 16:12:00,24.0,6.0,30.13,SSW,198,2.0,8.0,45,0.00,,,0.00,,2013-02-17 22:12:00,
2013-02-17 16:21:00,24.0,7.0,30.12,South,184,3.0,9.0,47,0.00,,,0.00,,2013-02-17 22:21:00,
2013-02-17 16:32:00,24.0,7.0,30.11,SSE,163,1.0,14.0,48,0.00,,,0.00,,2013-02-17 22:32:00,
2013-02-17 16:42:00,24.0,7.0,30.11,SSE,163,1.0,14.0,48,0.00,,,0.00,,2013-02-17 22:42:00,
2013-02-17 16:52:00,24.0,8.0,30.11,South,181,2.0,7.0,49,0.00,,,0.00,,2013-02-17 22:52:00,
2013-02-17 17:02:00,23.0,6.0,30.11,South,191,3.0,9.0,48,0.00,,,0.00,,2013-02-17 23:02:00,
2013-02-17 17:11:00,23.0,6.0,30.11,South,191,3.0,9.0,48,0.00,,,0.00,,2013-02-17 23:11:00,
2013-02-17 17:21:00,23.0,8.0,30.11,SSW,196,2.0,8.0,51,0.00,,,0.00,,2013-02-17 23:21:00,
2013-02-17 17:32:00,23.0,8.0,30.11,South,173,5.0,10.0,51,0.00,,,0.00,,2013-02-17 23:32:00,
2013-02-17 17:42:00,23.0,8.0,30.11,South,173,5.0,10.0,51,0.00,,,0.00,,2013-02-17 23:42:00,
2013-02-17 17:52:00,23.0,8.0,30.11,SSW,200,3.0,9.0,52,0.00,,,0.00,,2013-02-17 23:52:00,
2013-02-17 18:01:00,23.0,8.0,30.11,SSW,192,1.0,5.0,52,0.00,,,0.00,,2013-02-18 00:01:00,
2013-02-17 18:11:00,23.0,8.0,30.11,SSW,192,1.0,5.0,52,0.00,,,0.00,,2013-02-18 00:11:00,
2013-02-17 18:22:00,22.0,8.0,30.10,SSW,200,1.0,5.0,53,0.00,,,0.00,,2013-02-18 00:22:00,
2013-02-17 18:31:00,22.0,8.0,30.11,SSW,196,2.0,6.0,54,0.00,,,0.00,,2013-02-18 00:31:00,
2013-02-17 18:41:00,22.0,8.0,30.11,SSW,196,2.0,6.0,54,0.00,,,0.00,,2013-02-18 00:41:00,
2013-02-17 18:52:00,22.0,10.0,30.10,SSE,161,1.0,11.0,58,0.00,,,0.00,,2013-02-18 00:52:00,
2013-02-17 19:01:00,21.0,10.0,30.10,SE,133,2.0,7.0,61,0.00,,,0.00,,2013-02-18 01:01:00,
2013-02-17 19:11:00,21.0,10.0,30.10,SE,133,2.0,7.0,61,0.00,,,0.00,,2013-02-18 01:11:00,
2013-02-17 19:21:00,21.0,11.0,30.10,SSE,167,2.0,8.0,64,0.00,,,0.00,,2013-02-18 01:21:00,
2013-02-17 19:31:00,21.0,11.0,30.10,SE,139,2.0,7.0,66,0.00,,,0.00,,2013-02-18 01:31:00,
2013-02-17 19:41:00,21.0,11.0,30.10,SE,139,2.0,7.0,66,0.00,,,0.00,,2013-02-18 01:41:00,
2013-02-17 19:52:00,21.0,11.0,30.09,South,173,2.0,8.0,66,0.00,,,0.00,,2013-02-18 01:52:00,
2013-02-17 20:01:00,21.0,11.0,30.08,SSE,150,2.0,6.0,66,0.00,,,0.00,,2013-02-18 02:01:00,
2013-02-17 20:11:00,21.0,11.0,30.08,SSE,150,2.0,6.0,66,0.00,,,0.00,,2013-02-18 02:11:00,
2013-02-17 20:21:00,21.0,12.0,30.06,SE,140,2.0,9.0,67,0.00,,,0.00,,2013-02-18 02:21:00,
2013-02-17 20:32:00,22.0,12.0,30.07,SSE,160,2.0,7.0,66,0.00,,,0.00,,2013-02-18 02:32:00,
2013-02-17 20:41:00,22.0,12.0,30.07,SSE,160,2.0,7.0,66,0.00,,,0.00,,2013-02-18 02:41:00,
2013-02-17 20:52:00,22.0,12.0,30.07,SE,145,1.0,7.0,64,0.00,,,0.00,,2013-02-18 02:52:00,
2013-02-17 21:01:00,22.0,11.0,30.06,South,177,3.0,11.0,61,0.00,,,0.00,,2013-02-18 03:01:00,
2013-02-17 21:11:00,22.0,11.0,30.06,South,177,3.0,11.0,61,0.00,,,0.00,,2013-02-18 03:11:00,
2013-02-17 21:21:00,23.0,10.0,30.07,SSW,193,4.0,10.0,57,0.00,,,0.00,,2013-02-18 03:21:00,
2013-02-17 21:31:00,24.0,11.0,30.06,SSW,197,4.0,11.0,56,0.00,,,0.00,,2013-02-18 03:31:00,
2013-02-17 21:42:00,24.0,11.0,30.06,SSW,197,4.0,11.0,56,0.00,,,0.00,,2013-02-18 03:42:00,
2013-02-17 21:52:00,24.0,11.0,30.06,SSW,196,4.0,16.0,56,0.00,,,0.00,,2013-02-18 03:52:00,
2013-02-17 22:01:00,25.0,12.0,30.06,SSE,155,5.0,14.0,56,0.00,,,0.00,,2013-02-18 04:01:00,
2013-02-17 22:11:00,25.0,12.0,30.06,SSE,155,5.0,14.0,56,0.00,,,0.00,,2013-02-18 04:11:00,
2013-02-17 22:21:00,24.0,11.0,30.05,SSE,152,4.0,13.0,57,0.00,,,0.00,,2013-02-18 04:21:00,
2013-02-17 22:32:00,24.0,11.0,30.05,South,180,5.0,19.0,57,0.00,,,0.00,,2013-02-18 04:32:00,
2013-02-17 22:41:00,24.0,11.0,30.05,South,180,5.0,19.0,57,0.00,,,0.00,,2013-02-18 04:41:00,
2013-02-17 22:52:00,25.0,12.0,30.05,South,176,4.0,24.0,57,0.00,,,0.00,,2013-02-18 04:52:00,
2013-02-17 23:01:00,25.0,12.0,30.04,SSW,192,3.0,15.0,57,0.00,,,0.00,,2013-02-18 05:01:00,
2013-02-17 23:11:00,25.0,12.0,30.04,SSW,192,3.0,15.0,57,0.00,,,0.00,,2013-02-18 05:11:00,
2013-02-17 23:21:00,25.0,12.0,30.03,South,175,3.0,19.0,58,0.00,,,0.00,,2013-02-18 05:21:00,
2013-02-17 23:31:00,26.0,13.0,30.02,South,186,4.0,16.0,58,0.00,,,0.00,,2013-02-18 05:31:00,
2013-02-17 23:41:00,26.0,13.0,30.02,South,186,4.0,16.0,58,0.00,,,0.00,,2013-02-18 05:41:00,
2013-02-17 23:52:00,26.0,14.0,30.02,SE,138,3.0,16.0,59,0.00,,,0.00,,2013-02-18 05:52:00,